Weather Service Report


016 
ASUS45 KREV 052010
RWRNV 
NEVADA REGIONAL WEATHER ROUNDUP
NATIONAL WEATHER SERVICE RENO NV
100 PM PDT THU MAY 05 2016

NOTE: "FAIR" INDICATES FEW OR NO CLOUDS BELOW 12,000 FEET WITH NO
SIGNIFICANT WEATHER AND/OR OBSTRUCTIONS TO VISIBILITY.

NVZ001-003-004-052100-
WESTERN NEVADA
  
CITY           SKY/WX    TMP DP  RH WIND       PRES   REMARKS
RENO           CLOUDY    56  42  59 N12       29.86F                  
CARSON CITY    TSTM      50  43  76 NW14G22   29.86R                  
MINDEN         LGT RAIN  48  48 100 E8        29.88R                  
SLIDE MTN        N/A     32  32 100 NE16        N/A                   
PYRAMID LAKE     N/A     54 N/A N/A NW5         N/A                   
FALLON         CLOUDY    73  31  21 NE8       29.75F                  
LOVELOCK       PTSUNNY   72  36  26 N16       29.76F                  
$$

NVZ002-CAZ072-073-052100-
NORTHERN AND CENTRAL SIERRA
  
CITY           SKY/WX    TMP DP  RH WIND       PRES   REMARKS
S. LAKE TAHOE  CLOUDY    47  40  76 VRB3      29.88F                  
TRUCKEE        CLOUDY    50  39  66 CALM      29.88F                  
SQUAW VLY 8000   N/A     39  34  81 S2          N/A                   
BLUE CANYON    FOG       44  43  96 SW6       29.90F VSB<1/4          
MAMMOTH LAKES  FAIR      62  11  13 E23G30    29.85F                  
BRIDGEPORT     CLOUDY    54  26  34 VRB5      29.83F                  
$$

NVZ030-031-036-052100-
NORTHERN NEVADA
  
CITY           SKY/WX    TMP DP  RH WIND       PRES   REMARKS
ELKO           PTSUNNY   75  30  19 S22G28    29.82F                  
WINNEMUCCA     PTSUNNY   70  38  31 W7        29.80F                  
WENDOVER       PTSUNNY   73  39  29 E5        29.86F                  
$$

NVZ035-037-052100-
CENTRAL NEVADA
  
CITY           SKY/WX    TMP DP  RH WIND       PRES   REMARKS
ELY            PTSUNNY   69  18  14 SE22G40   29.93F                  
EUREKA           N/A     70  20  15 SE25G36   29.87S                  
$$

NVZ013-014-052100-
SOUTH CENTRAL NEVADA
  
CITY           SKY/WX    TMP DP  RH WIND       PRES   REMARKS
TONOPAH        PTSUNNY   70  29  21 S23G37    29.84F                  
$$

NVZ017-020-022-052100-
SOUTHERN NEVADA
  
CITY           SKY/WX    TMP DP  RH WIND       PRES   REMARKS
LAS VEGAS      PTSUNNY   84  19   9 SE13G29   29.73F                  
N. LAS VEGAS   PTSUNNY   83  23  11 SE20G30   29.76F                  
NELLIS AFB     PTSUNNY   83  17   8 SE13G32   29.75F                  
HENDERSON      MOSUNNY   82  21  10 S25G33    29.78F                  
MERCURY        CLOUDY    79  27  14 S23G29    29.76F                  
$$
  

Return to Home page


Western Regional Climate Center, wrcc@dri.edu